When you browse on this site, cookies collect data to enhance your experience and personalize the content and advertising you see.
Visit our Privacy Policy to learn more. By continuing to use the site, you agree to this use of cookies and data.
  • In Romania
  • List of Countries
  • For 7 days
  • Water Temperature
  • Weather Map
  • Weather Widgets
  • user-avatar
    Login

    Hourly Weather Middlesbrough

    Today, 8 December, Sunday

    Time Temperature Precipitation Wind Pressure Humidity
    00:00 +8°C° 0 mm 11 mps 742 mmHg 85%
    01:00 +9°C° 0.2 mm 11 mps 741 mmHg 82%
    02:00 +9°C° 0.2 mm 12 mps 740 mmHg 79%
    03:00 +10°C° 0.2 mm 12 mps 738 mmHg 76%
    04:00 +9°C° 0 mm 11 mps 739 mmHg 76%
    05:00 +7°C° 0 mm 10 mps 740 mmHg 75%
    06:00 +6°C° 0 mm 8 mps 740 mmHg 78%
    07:00 +5°C° 0 mm 9 mps 740 mmHg 77%
    08:00 +5°C° 0 mm 9 mps 740 mmHg 76%
    09:00 +5°C° 0 mm 10 mps 740 mmHg 75%
    10:00 +4°C° 0 mm 11 mps 740 mmHg 72%
    11:00 +6°C° 0 mm 11 mps 740 mmHg 70%
    12:00 +6°C° 0 mm 11 mps 740 mmHg 69%
    13:00 +6°C° 0 mm 11 mps 739 mmHg 69%
    14:00 +4°C° 0 mm 11 mps 739 mmHg 70%
    15:00 +4°C° 0 mm 12 mps 738 mmHg 70%
    16:00 +4°C° 0 mm 11 mps 738 mmHg 72%
    17:00 +4°C° 0 mm 11 mps 738 mmHg 74%
    18:00 +3°C° 0 mm 11 mps 737 mmHg 76%
    19:00 +3°C° 0 mm 10 mps 737 mmHg 77%
    20:00 +3°C° 0 mm 10 mps 737 mmHg 78%
    21:00 +3°C° 0 mm 10 mps 736 mmHg 79%
    22:00 +3°C° 0.1 mm 9 mps 736 mmHg 80%
    23:00 +4°C° 0.1 mm 8 mps 736 mmHg 81%

    Tomorrow, 9 December, Monday

    Time Temperature Precipitation Wind Pressure Humidity
    00:00 +4°C° 0.1 mm 6 mps 736 mmHg 82%
    01:00 +4°C° 0 mm 7 mps 737 mmHg 82%
    02:00 +4°C° 0 mm 8 mps 738 mmHg 82%
    03:00 +4°C° 0 mm 8 mps 738 mmHg 82%
    04:00 +3°C° 0.3 mm 11 mps 740 mmHg 81%
    05:00 +3°C° 0.3 mm 13 mps 743 mmHg 80%
    06:00 +2°C° 0.3 mm 16 mps 745 mmHg 79%
    07:00 +3°C° 0.1 mm 14 mps 747 mmHg 76%
    08:00 +1°C° 0.1 mm 13 mps 750 mmHg 73%
    09:00 +2°C° 0.1 mm 11 mps 752 mmHg 70%
    10:00 +2°C° 0 mm 11 mps 754 mmHg 68%
    11:00 +2°C° 0 mm 10 mps 755 mmHg 66%
    12:00 +2°C° 0 mm 10 mps 757 mmHg 64%
    13:00 +2°C° 0 mm 9 mps 758 mmHg 66%
    14:00 +2°C° 0 mm 8 mps 759 mmHg 68%
    15:00 +2°C° 0 mm 7 mps 760 mmHg 69%
    16:00 +2°C° 0 mm 6 mps 761 mmHg 72%
    17:00 +1°C° 0 mm 5 mps 762 mmHg 75%
    18:00 0°C° 0 mm 4 mps 763 mmHg 77%
    19:00 0°C° 0 mm 4 mps 763 mmHg 77%
    20:00 +1°C° 0 mm 3 mps 763 mmHg 78%
    21:00 +2°C° 0 mm 2 mps 764 mmHg 78%
    22:00 +1°C° 0 mm 3 mps 763 mmHg 80%
    23:00 +1°C° 0 mm 3 mps 763 mmHg 82%

    Day after tomorrow, 10 December, Tuesday

    Time Temperature Precipitation Wind Pressure Humidity
    00:00 0°C° 0 mm 4 mps 763 mmHg 84%
    01:00 0°C° 0 mm 5 mps 762 mmHg 85%
    02:00 +1°C° 0 mm 5 mps 761 mmHg 85%
    03:00 +1°C° 0 mm 6 mps 761 mmHg 85%
    04:00 +2°C° 0 mm 7 mps 759 mmHg 85%
    05:00 +1°C° 0 mm 8 mps 758 mmHg 85%
    06:00 +2°C° 0 mm 9 mps 757 mmHg 84%
    07:00 +2°C° 0 mm 10 mps 756 mmHg 84%
    08:00 +3°C° 0 mm 11 mps 754 mmHg 84%
    09:00 +4°C° 0 mm 12 mps 753 mmHg 84%
    10:00 +5°C° 0.3 mm 13 mps 751 mmHg 84%
    11:00 +5°C° 0.3 mm 13 mps 749 mmHg 85%
    12:00 +6°C° 0.3 mm 14 mps 748 mmHg 85%
    13:00 +8°C° 0.2 mm 13 mps 746 mmHg 85%
    14:00 +9°C° 0.2 mm 13 mps 745 mmHg 85%
    15:00 +10°C° 0.2 mm 12 mps 743 mmHg 85%
    16:00 +8°C° 0.7 mm 12 mps 744 mmHg 85%
    17:00 +6°C° 0.7 mm 11 mps 744 mmHg 85%
    18:00 +5°C° 0.7 mm 10 mps 745 mmHg 84%
    19:00 +5°C° 0 mm 10 mps 746 mmHg 81%
    20:00 +3°C° 0 mm 9 mps 747 mmHg 78%
    21:00 +3°C° 0 mm 9 mps 748 mmHg 74%
    22:00 +3°C° 0 mm 9 mps 748 mmHg 75%
    23:00 +2°C° 0 mm 8 mps 749 mmHg 76%

    11 December, Wednesday

    Time Temperature Precipitation Wind Pressure Humidity
    00:00 +2°C° 0 mm 8 mps 749 mmHg 76%
    01:00 +2°C° 0 mm 7 mps 750 mmHg 76%
    02:00 +2°C° 0 mm 7 mps 750 mmHg 75%
    03:00 +2°C° 0 mm 7 mps 750 mmHg 75%
    04:00 +2°C° 0 mm 7 mps 750 mmHg 76%
    05:00 +2°C° 0 mm 7 mps 749 mmHg 77%
    06:00 +2°C° 0 mm 7 mps 749 mmHg 78%
    07:00 +2°C° 0 mm 7 mps 749 mmHg 81%
    08:00 +2°C° 0 mm 7 mps 748 mmHg 83%
    09:00 +1°C° 0 mm 8 mps 748 mmHg 86%
    10:00 +2°C° 0.1 mm 7 mps 747 mmHg 84%
    11:00 +3°C° 0.1 mm 7 mps 746 mmHg 83%
    12:00 +3°C° 0.1 mm 6 mps 746 mmHg 82%
    13:00 +3°C° 0 mm 6 mps 745 mmHg 82%
    14:00 +3°C° 0 mm 5 mps 745 mmHg 82%
    15:00 +2°C° 0 mm 5 mps 744 mmHg 82%
    16:00 +2°C° 0.3 mm 5 mps 744 mmHg 85%
    17:00 +1°C° 0.3 mm 4 mps 745 mmHg 88%
    18:00 +1°C° 0.3 mm 4 mps 745 mmHg 91%
    19:00 +1°C° 0 mm 4 mps 745 mmHg 87%
    20:00 +1°C° 0 mm 5 mps 745 mmHg 84%
    21:00 0°C° 0 mm 5 mps 746 mmHg 80%
    22:00 +1°C° 0 mm 6 mps 746 mmHg 79%
    23:00 0°C° 0 mm 7 mps 746 mmHg 79%

    12 December, Thursday

    Time Temperature Precipitation Wind Pressure Humidity
    00:00 0°C° 0 mm 7 mps 746 mmHg 78%
    01:00 0°C° 0 mm 7 mps 746 mmHg 79%
    02:00 0°C° 0 mm 7 mps 746 mmHg 80%
    03:00 0°C° 0 mm 7 mps 746 mmHg 81%
    04:00 0°C° 0 mm 7 mps 745 mmHg 82%
    05:00 -1°C° 0 mm 7 mps 745 mmHg 83%
    06:00 -1°C° 0 mm 6 mps 745 mmHg 84%
    07:00 -1°C° 0 mm 7 mps 744 mmHg 86%
    08:00 0°C° 0 mm 7 mps 743 mmHg 87%
    09:00 0°C° 0 mm 8 mps 742 mmHg 89%
    10:00 +1°C° 0.1 mm 8 mps 740 mmHg 90%
    11:00 +1°C° 0.1 mm 9 mps 738 mmHg 90%
    12:00 +2°C° 0.1 mm 9 mps 736 mmHg 91%
    13:00 +3°C° 1.1 mm 10 mps 734 mmHg 91%
    14:00 +3°C° 1.1 mm 11 mps 731 mmHg 91%
    15:00 +4°C° 1.1 mm 12 mps 729 mmHg 91%
    16:00 +5°C° 0.7 mm 10 mps 728 mmHg 89%
    17:00 +5°C° 0.7 mm 9 mps 727 mmHg 88%
    18:00 +6°C° 0.7 mm 8 mps 726 mmHg 86%
    19:00 +5°C° 0.4 mm 9 mps 726 mmHg 85%
    20:00 +3°C° 0.4 mm 10 mps 726 mmHg 84%
    21:00 +2°C° 0.4 mm 11 mps 726 mmHg 83%
    22:00 0°C° 0 mm 12 mps 726 mmHg 81%
    23:00 0°C° 0 mm 12 mps 726 mmHg 79%

    13 December, Friday

    Time Temperature Precipitation Wind Pressure Humidity
    00:00 0°C° 0 mm 13 mps 726 mmHg 77%
    01:00 0°C° 0.1 mm 14 mps 725 mmHg 78%
    02:00 0°C° 0.1 mm 15 mps 725 mmHg 79%
    03:00 0°C° 0.1 mm 16 mps 725 mmHg 80%
    04:00 0°C° 0.7 mm 15 mps 725 mmHg 81%
    05:00 +1°C° 0.7 mm 15 mps 725 mmHg 82%
    06:00 +1°C° 0.7 mm 15 mps 726 mmHg 83%
    07:00 +1°C° 0.1 mm 14 mps 727 mmHg 84%
    08:00 +1°C° 0.1 mm 13 mps 729 mmHg 85%
    09:00 0°C° 0.1 mm 12 mps 730 mmHg 85%
    10:00 +2°C° 0 mm 12 mps 731 mmHg 81%
    11:00 +2°C° 0 mm 12 mps 732 mmHg 77%
    12:00 +2°C° 0 mm 12 mps 733 mmHg 73%
    13:00 +2°C° 0 mm 11 mps 733 mmHg 76%
    14:00 +2°C° 0 mm 11 mps 734 mmHg 79%
    15:00 +1°C° 0 mm 10 mps 734 mmHg 82%
    16:00 +1°C° 0.1 mm 10 mps 735 mmHg 80%
    17:00 +1°C° 0.1 mm 10 mps 736 mmHg 77%
    18:00 +1°C° 0.1 mm 9 mps 736 mmHg 75%
    19:00 +1°C° 0 mm 9 mps 737 mmHg 75%
    20:00 +1°C° 0 mm 8 mps 737 mmHg 76%
    21:00 0°C° 0 mm 8 mps 737 mmHg 76%
    22:00 0°C° 0 mm 8 mps 737 mmHg 77%
    23:00 0°C° 0 mm 7 mps 737 mmHg 77%
    Show more